Regional Weather Roundup
Issued by NWS Bismarck, ND

Home | Current Version | Previous Version | Text Only | Print | Product List | Glossary On
Versions: 1 2 3 4 5 6 7 8 9 10 11 12 13 14 15 16 17 18 19 20 21 22 23 24 25 26 27 28 29 30 31 32 33 34 35 36 37 38 39 40 41 42 43 44 45 46 47 48 49 50
000
ASUS43 KBIS 252010
RWRBIS

NWR BROADCAST TEXT
NATIONAL WEATHER SERVICE BISMARCK ND
300 PM CDT FRI MAY 25 2018

NOTE: "FAIR" INDICATES FEW OR NO CLOUDS BELOW 12,000 FEET WITH NO
SIGNIFICANT WEATHER AND/OR OBSTRUCTIONS TO VISIBILITY.


CITY           SKY/WX    TMP DP  RH WIND       PRES   REMARKS
WILLISTON      SUNNY     88  49  25 W14G24    29.74F
MINOT          SUNNY     91  44  19 W22G29    29.67S
MINOT AFB      SUNNY     90  43  19 W23G31    29.65S
BISMARCK       MOSUNNY   89  49  25 W21G26    29.72F
DICKINSON      SUNNY     85  48  27 NW20G33   29.79S
GARRISON         N/A     88  47  24 W21G36    29.70S
HETTINGER ARPT SUNNY     83  49  30 W16G30    29.85F
JAMESTOWN      MOSUNNY   88  54  31 W13G26    29.69F
CARRINGTON     FAIR      88  46  23 W18G28    29.68F
HAZEN          FAIR      90  48  24 W20G29    29.73F
LINTON           N/A    N/A N/A N/A W16       29.77F
MANDAN         FAIR      88  52  29 W21G31    29.74S
OAKES            N/A     88  57  35 W17       29.71F
STANLEY          N/A     84  50  30 W20       29.76S HAZE
TIOGA          FAIR      82  46  28 W23       29.76S
WATFORD CITY   FAIR      84  48  28 NW14      29.76F
$$

CITY           SKY/WX    TMP DP  RH WIND       PRES   REMARKS
GRAND FORKS    PTSUNNY   93  52  24 W17       29.59F HX  90
GRAND FORKS AF FAIR      92  51  24 W12       29.61F
DEVILS LAKE    FAIR      89  54  30 W17       29.64F
FARGO          FAIR      90  54  29 W7        29.64F
CANDO          FAIR      90  54  29 W21G28    29.64S
CAVALIER         N/A     90  50  25 SW9G17    29.57F
GRAFTON        FAIR      90  54  29 W14       29.60F
GWINNER          N/A     91  52  25 W9G21     29.69F
LANGDON        FAIR      91  54  27 W20G28    29.62F
ROLLA          FAIR      88  46  23 W20G35    29.63F
WALHALLA       FAIR      90  55  31 W14G21    29.58F
$$

CITY           SKY/WX    TMP DP  RH WIND       PRES   REMARKS
ABERDEEN       MOSUNNY   93  50  23 W17G28    29.73F HX  90
MOBRIDGE       SUNNY     88  56  33 W12       29.76F
BUFFALO          N/A     83  50  31 W22G29    29.83S
RAPID CITY     MOSUNNY   81  55  40 E3        29.92F
GLASGOW        SUNNY     84  46  26 W8        29.79F
SIDNEY         SUNNY     82  53  36 NW14      29.78S
WOLF POINT     SUNNY     85  51  31 W15G23    29.78F
GLENDIVE       SUNNY     81  55  40 W14G23    29.83F
MILES CITY     SUNNY     80  54  40 W15G25    29.87S
BAKER          SUNNY     81  51  35 W24G31    29.87F
$$

CITY           SKY/WX    TMP DP  RH WIND       PRES   REMARKS
BILLINGS       MOSUNNY   77  52  41 S9        29.93F
GREAT FALLS    SUNNY     79  45  29 W8        29.90F
REGINA         PTSUNNY   79  54  41 W23G32    29.67F
ESTEVAN        MOSUNNY   84  46  26 NW25G33   29.68F
$$





USA.gov is the U.S. government's official web portal to all federal, state and local government web resources and services.